Tracking 19176 objects as of 28-May-2018
HD Live streaming from Space Station
objects crossing your sky now

LEMUR 2 MONSON

Track LEMUR 2 MONSON now!
10-day predictions
LEMUR 2 MONSON is classified as:


NORAD ID: 42839
Int'l Code: 2017-042Q
Perigee: 592.6 km
Apogee: 608.6 km
Inclination: 97.6 °
Period: 96.6 minutes
Semi major axis: 6971 km
RCS: Unknown
Launch date: July 14, 2017
Source: United States (US)
Launch site: TYURATAM MISSILE AND SPACE COMPLEX (TTMTR)
aabbcc
Your satellite tracking list
Your tracking list is empty




NASA's NSSDC Master Catalog

Two Line Element Set (TLE):
1 42839U 17042Q   18147.70884746  .00000166  00000-0  21954-4 0  9993
2 42839  97.5993  51.1088 0011433 265.3219  94.6695 14.91440948 47300
Source of the keplerian elements: AFSPC